Peoria, IL

1:47 AM CDT on October 22, 2019 (GMT -0500)
Greater Peoria Regional

Weather History for KPIA - August, 2019

Change the Weather History Date:

Sunday, August 11, 2019

  Actual Average Record
Temperature  
Mean Temperature 75 °F 74 °F  
Max Temperature 83 °F 84 °F 101 °F (1941)
Min Temperature 67 °F 64 °F 49 °F (2004)
Degree Days  
Heating Degree Days 0 0  
Month to date heating degree days 0 0  
Since 1 June heating degree days 5 19  
Since 1 July heating degree days 0 1  
Cooling Degree Days 10 9  
Month to date cooling degree days 112 108  
Year to date cooling degree days 824 739  
Since 1 June cooling degree days 743 658  
Growing Degree Days 24 (Base 50)    
Moisture  
Dew Point 67 °F    
Average Humidity 81    
Maximum Humidity 93    
Minimum Humidity 68    
Precipitation  
Precipitation 0.79 in 0.10 in 2.22 in (1952)
Month to date precipitation 1.08 1.15  
Year to date precipitation 30.76 22.86  
Snow  
Snow 0.00 in 0.00 in 0.00 in ()
Month to date snowfall 0.0 0.0  
Since 1 June snowfall 0.0 0.0  
Since 1 July snowfall 0.0 0.0  
Snow Depth 0.00 in    
Sea Level Pressure  
Sea Level Pressure 29.97 in    
Wind  
Wind Speed 5 mph (South)    
Max Wind Speed 15 mph    
Max Gust Speed 20 mph    
Visibility 8 miles    
Events Rain , Thunderstorm    
T = Trace of Precipitation, MM = Missing Value Source: NWS Daily Summary

Daily Weather History Graph

Daily Weather History Graph

Search for Another Location

Airport or City:

Astronomy

Aug. 11, 2019 Rise Set
Actual Time 6:05 AM CDT 8:02 PM CDT
Civil Twilight 5:35 AM CDT 8:31 PM CDT
Nautical Twilight 4:58 AM CDT 9:08 PM CDT
Astronomical Twilight 4:19 AM CDT 9:47 PM CDT
Moon 5:42 PM CDT (8/11) 2:24 AM CDT (8/11)
Length of Visible Light 14h 56m
Length of Day
13h 57m
Waxing Gibbous, 87% of the Moon is Illuminated
Aug 11
Waxing Gibbous
Aug 15
Full
Aug 23
Last Quarter
Aug 30
New
Sep 5
First Quarter

Hourly Weather History & Observations

Time (CDT) Temp. Heat Index Dew Point Humidity Pressure Visibility Wind Dir Wind Speed Gust Speed Precip Events Conditions
12:54 AM 68.0 °F - 61.0 °F 78% 29.99 in 10.0 mi Calm Calm - N/A   Clear
1:54 AM 69.1 °F - 61.0 °F 75% 29.99 in 10.0 mi Calm Calm - N/A   Clear
2:54 AM 68.0 °F - 60.1 °F 76% 29.98 in 10.0 mi South 4.6 mph - N/A   Clear
3:54 AM 69.1 °F - 60.1 °F 73% 29.97 in 10.0 mi South 3.5 mph - N/A   Mostly Cloudy
4:54 AM 70.0 °F - 59.0 °F 68% 29.97 in 10.0 mi South 6.9 mph - N/A   Clear
5:54 AM 70.0 °F - 60.1 °F 71% 29.98 in 10.0 mi South 6.9 mph - N/A   Mostly Cloudy
6:54 AM 71.1 °F - 60.1 °F 68% 29.98 in 10.0 mi South 9.2 mph - N/A   Clear
7:54 AM 72.0 °F - 61.0 °F 68% 29.99 in 10.0 mi South 6.9 mph - N/A   Mostly Cloudy
8:54 AM 72.0 °F - 63.0 °F 73% 30.00 in 10.0 mi South 11.5 mph - N/A   Overcast
8:56 AM 72.0 °F - 63.0 °F 73% 30.01 in 10.0 mi South 12.7 mph - N/A Thunderstorm Overcast
9:06 AM 71.1 °F - 63.0 °F 75% 30.02 in 10.0 mi SSW 10.4 mph - N/A Thunderstorm Overcast
9:11 AM 70.0 °F - 64.0 °F 81% 30.01 in 1.8 mi South 13.8 mph - 0.00 in Rain Light Rain
9:14 AM 69.1 °F - 64.0 °F 84% 30.00 in 0.8 mi South 13.8 mph - 0.00 in Rain Heavy Rain
9:21 AM 68.0 °F - 64.9 °F 90% 30.00 in 1.0 mi SSE 10.4 mph - 0.18 in Rain Light Rain
9:24 AM 69.1 °F - 64.9 °F 87% 30.00 in 3.0 mi SSE 9.2 mph - 0.18 in Rain Light Rain
9:31 AM 70.0 °F - 64.9 °F 84% 30.00 in 7.0 mi SSE 8.1 mph - 0.18 in Rain Light Rain
9:54 AM 70.0 °F - 66.0 °F 87% 29.99 in 10.0 mi SE 4.6 mph - 0.18 in   Scattered Clouds
10:52 AM 71.6 °F - 66.2 °F 83% 30.04 in 10.0 mi ENE 6.9 mph - N/A   Overcast
10:54 AM 71.1 °F - 66.0 °F 84% 30.04 in 10.0 mi ENE 8.1 mph - N/A   Overcast
11:39 AM 72.0 °F - 66.9 °F 84% 30.03 in 10.0 mi ESE 6.9 mph - 0.00 in   Scattered Clouds
11:54 AM 73.0 °F - 66.9 °F 81% 30.01 in 10.0 mi SE 6.9 mph - 0.00 in   Clear
12:54 PM 75.9 °F - 68.0 °F 76% 30.01 in 10.0 mi SSE 6.9 mph - N/A   Partly Cloudy
1:54 PM 78.1 °F - 69.1 °F 74% 29.98 in 10.0 mi SE 8.1 mph - N/A   Partly Cloudy
2:54 PM 81.0 °F 84.9 °F 71.1 °F 72% 29.96 in 10.0 mi South 10.4 mph - N/A   Partly Cloudy
3:54 PM 82.0 °F 86.7 °F 72.0 °F 71% 29.94 in 10.0 mi SSW 10.4 mph - N/A   Clear
4:54 PM 82.0 °F 87.4 °F 73.0 °F 74% 29.93 in 10.0 mi South 6.9 mph - N/A   Clear
5:54 PM 82.0 °F 87.4 °F 73.0 °F 74% 29.92 in 10.0 mi South 6.9 mph - N/A   Clear
6:54 PM 80.1 °F 84.2 °F 73.0 °F 79% 29.91 in 10.0 mi South 3.5 mph - N/A   Clear
7:54 PM 80.1 °F 84.5 °F 73.9 °F 81% 29.92 in 10.0 mi Calm Calm - N/A   Mostly Cloudy
8:06 PM 80.1 °F 84.2 °F 73.0 °F 79% 29.94 in 10.0 mi West 11.5 mph 17.3 mph 0.00 in Rain Light Rain
8:16 PM 75.9 °F - 71.1 °F 85% 29.95 in 1.5 mi WSW 6.9 mph - 0.03 in Rain Heavy Rain
8:18 PM 75.9 °F - 71.1 °F 85% 29.95 in 0.8 mi WSW 5.8 mph - 0.10 in Rain Heavy Rain
8:30 PM 73.9 °F - 71.1 °F 91% 29.94 in 2.0 mi WSW 6.9 mph - 0.57 in Rain Rain
8:38 PM 75.0 °F - 71.1 °F 87% 29.93 in 6.0 mi West 4.6 mph - 0.58 in Rain Light Rain
8:54 PM 73.9 °F - 71.1 °F 91% 29.93 in 6.0 mi Calm Calm - 0.60 in Rain Light Rain
9:54 PM 73.9 °F - 71.1 °F 91% 29.93 in 10.0 mi Calm Calm - 0.01 in   Clear
10:54 PM 73.0 °F - 71.1 °F 93% 29.94 in 10.0 mi South 4.6 mph - N/A   Mostly Cloudy
11:54 PM 72.0 °F - 70.0 °F 93% 29.94 in 10.0 mi Calm Calm - N/A   Clear